Wind_Speed
45 46 46 46 46 46 46 46 46 46 47 47 46 46 46 47 47 47 48 48 49 49 49 49 49 48 48 48 48 47 47 47 46 46 45 45 45 45 45 45 46 46 46 46 47 47 47 47 47 47 46 46 46 45 44 43 43 42 42 43 43 43 42 42 41 40 40 40 39 39 39 38 37 37 36 36 37 38 37 37 36 36 35 35 34 34
47 47 47 47 48 48 48 48 48 48 48 48 48 48 48 48 48 48 48 49 49 49 49 49 49 48 48 47 47 46 46 45 45 45 44 44 44 44 44 44 44 45 45 45 45 46 46 46 45 45 45 45 44 44 43 42 41 41 41 42 42 42 41 41 40 39 39 39 38 38 37 36 36 35 35 35 35 36 36 35 35 35 34 34 33 34
47 48 48 49 49 49 49 49 49 49 48 48 48 48 48 48 48 49 49 49 49 49 48 48 48 48 47 47 46 45 45 44 44 44 44 44 44 44 43 43 43 43 44 44 44 44 44 44 44 44 43 43 43 43 42 41 41 41 41 41 41 41 40 40 39 39 39 38 38 37 36 36 36 36 36 36 36 36 36 36 35 34 34 34 34 34
48 49 50 50 50 51 50 50 50 49 49 49 49 48 48 48 49 49 49 48 48 48 48 47 47 47 46 46 45 44 44 44 43 43 43 43 43 43 43 43 43 42 42 42 42 42 41 41 41 41 41 42 42 41 41 41 41 41 41 41 40 40 40 39 39 39 38 38 37 37 37 36 36 36 36 36 37 37 37 36 36 35 35 35 35 35
50 50 51 51 52 52 52 51 51 50 50 49 48 48 48 48 48 49 49 48 48 48 47 47 47 46 46 45 44 44 43 43 43 42 42 42 42 42 42 42 42 41 41 41 40 40 39 39 39 39 39 40 40 40 41 41 41 41 41 41 40 40 40 39 39 39 38 38 38 37 37 38 38 37 37 37 37 37 37 37 37 36 36 36 36 37
51 51 52 52 52 52 52 52 51 50 50 49 49 48 48 48 48 49 48 48 48 48 47 47 46 45 45 44 43 43 42 42 42 41 41 41 41 41 41 41 40 40 40 40 39 38 37 37 37 37 37 38 38 39 39 40 40 40 41 41 41 41 40 40 40 39 39 39 39 39 39 39 39 38 38 38 38 38 38 38 37 37 38 38 38 39
52 52 52 53 53 53 53 52 51 51 50 50 49 49 49 49 49 49 49 48 48 47 47 47 46 45 44 43 43 42 42 41 41 40 40 40 40 40 40 39 39 39 39 39 38 37 37 36 36 36 37 37 37 38 38 38 39 39 40 41 41 41 41 41 41 40 40 40 41 41 40 40 39 39 39 39 38 38 38 38 38 38 39 39 39 40
53 53 53 53 53 53 53 52 51 50 50 50 50 50 50 50 50 49 49 48 48 47 47 46 46 44 43 42 42 41 41 40 40 39 39 39 39 39 38 38 38 38 38 38 37 37 37 37 37 37 37 37 37 37 37 37 37 38 39 40 41 41 42 42 42 42 42 42 43 43 42 41 41 41 41 40 40 40 40 40 40 40 41 41 41 42
53 53 53 53 52 52 52 52 51 50 50 50 50 50 50 50 50 50 49 48 47 47 46 46 45 44 43 42 41 40 40 40 39 39 38 38 38 38 38 38 38 38 38 37 37 37 37 37 37 37 38 38 37 37 37 37 37 37 37 38 39 40 41 42 43 43 44 44 45 45 44 44 44 44 44 44 43 44 44 44 44 45 45 45 45 45
53 53 53 53 53 52 51 51 51 51 50 50 49 49 49 49 49 50 49 48 47 46 45 45 44 44 43 42 41 40 39 39 39 38 38 38 38 38 38 38 38 38 38 38 38 38 38 38 38 38 38 38 37 37 37 37 36 36 36 36 37 38 39 41 42 44 45 45 46 46 46 46 46 46 46 46 46 47 47 48 48 49 49 49 49 49
54 54 53 53 53 52 51 51 51 51 50 49 49 49 48 47 47 48 48 48 47 46 45 44 43 42 42 42 42 40 39 39 38 38 38 38 38 38 38 38 38 38 39 39 39 39 40 40 39 39 38 37 37 36 36 36 36 36 35 35 35 36 37 39 41 42 43 44 45 45 46 46 46 46 46 47 47 47 48 48 49 49 49 50 50 50
53 53 53 53 53 52 51 51 51 51 50 49 48 48 47 47 46 46 46 47 46 45 44 44 43 42 41 41 41 41 40 40 39 39 39 39 39 39 39 39 40 40 40 40 41 41 41 40 40 39 38 37 36 35 35 35 35 35 35 35 35 35 36 37 38 39 41 42 43 43 43 44 44 44 44 44 44 44 44 44 44 44 44 45 45 45
53 53 53 53 53 52 51 51 50 50 49 47 46 46 45 45 45 45 45 45 45 44 44 43 43 42 41 40 40 41 41 41 41 41 41 40 40 41 41 41 41 41 42 42 42 42 41 40 39 38 37 36 35 34 34 33 33 33 33 33 34 34 34 35 36 36 37 38 38 39 39 39 38 38 38 38 38 38 38 37 37 37 37 37 37 37
53 54 53 53 53 52 51 50 49 49 48 46 45 44 44 44 44 44 44 44 44 44 43 43 42 42 41 40 40 41 41 42 42 42 41 41 41 41 42 43 43 43 43 43 43 42 41 39 38 37 35 35 34 33 32 32 31 31 31 31 31 31 31 31 32 32 32 32 32 32 32 32 32 32 32 32 32 32 32 32 32 32 31 31 31 31
53 53 53 53 53 52 51 50 49 48 47 45 44 43 43 43 43 43 43 44 44 43 43 42 42 42 41 40 40 41 42 43 43 43 42 42 41 42 43 44 44 44 44 44 43 41 39 37 35 34 33 32 32 31 31 30 29 29 28 28 27 27 27 27 26 26 26 26 26 26 26 26 27 27 27 28 28 29 29 29 29 29 29 29 29 28
53 53 53 52 52 51 50 49 48 47 45 44 43 42 42 42 42 43 43 43 43 43 42 42 42 42 41 40 40 40 42 43 44 44 43 43 42 42 44 45 45 45 44 43 41 38 36 33 32 31 30 30 30 30 29 28 28 27 26 25 24 24 23 23 22 22 22 22 23 23 24 24 25 25 26 27 27 28 28 28 29 29 29 29 28 28
53 53 52 52 51 50 49 48 47 45 44 43 42 42 41 41 41 42 42 42 42 42 42 42 42 42 42 41 41 41 42 43 44 44 44 44 43 43 44 45 45 45 43 41 38 35 32 30 29 28 28 28 29 28 28 27 26 25 24 23 23 22 21 21 21 21 21 22 22 23 23 24 25 25 26 26 27 28 28 28 29 29 29 29 29 28
52 51 51 50 50 49 48 47 46 45 44 43 42 41 41 41 41 41 41 41 41 41 41 42 42 42 42 42 42 42 42 44 45 45 45 44 44 44 44 44 44 43 41 37 34 31 28 27 26 26 27 27 27 27 27 26 25 24 23 22 22 21 21 21 21 21 21 22 22 23 23 24 24 25 26 26 27 28 28 28 28 29 29 29 29 28
51 50 49 49 49 48 47 46 44 44 43 42 41 41 40 40 40 40 40 40 39 40 40 41 41 41 42 42 42 43 43 44 45 45 45 45 45 44 43 43 42 40 37 34 30 27 26 25 24 25 25 26 26 26 26 25 24 23 22 22 21 21 21 21 21 21 21 21 22 22 23 23 24 25 25 26 27 28 28 28 29 29 29 29 29 28
49 48 47 46 46 46 46 44 43 42 41 41 40 40 39 39 39 39 39 39 39 39 40 40 40 41 42 42 43 43 43 44 45 45 45 45 45 43 42 41 39 37 34 30 27 25 24 24 24 24 24 25 25 25 25 24 23 22 22 21 21 21 20 20 20 21 21 21 21 22 22 23 23 24 25 26 26 27 27 28 28 28 28 28 28 28
47 47 46 44 44 44 44 43 42 41 40 40 39 39 38 39 39 38 38 38 38 38 39 39 39 40 42 43 43 43 43 43 44 45 45 45 44 42 40 38 36 34 31 28 25 24 23 23 23 23 23 24 24 24 24 24 23 22 21 21 20 20 20 20 20 20 20 20 20 21 21 22 23 23 24 24 25 25 26 26 26 26 27 28 28 29
45 45 44 43 42 42 42 41 40 40 39 38 38 37 37 38 38 38 38 37 37 38 38 38 39 40 41 42 43 42 42 43 44 44 45 44 43 40 38 35 33 31 28 26 25 24 23 23 22 22 22 23 23 24 24 23 22 21 21 20 20 20 20 19 19 19 19 20 20 20 21 21 22 23 23 23 23 24 24 25 25 25 26 28 29 28
43 43 43 42 41 40 40 39 39 38 37 36 36 36 36 36 37 37 37 37 37 37 37 37 38 40 41 42 42 42 42 42 42 43 43 43 41 38 35 33 31 29 27 26 25 24 23 22 21 21 21 22 22 23 23 23 22 21 21 20 20 20 20 19 19 19 19 20 20 21 21 22 22 22 22 22 23 23 24 24 24 25 26 28 28 27
42 42 41 40 39 39 38 38 37 37 36 35 35 34 35 35 36 36 36 36 36 36 36 37 39 40 42 42 42 42 41 41 41 42 42 41 39 36 33 31 30 29 28 27 26 25 24 22 20 19 19 20 21 21 22 22 22 21 21 21 20 20 20 20 20 20 21 21 21 22 22 23 22 22 21 21 22 22 22 22 23 24 25 27 27 26
41 40 39 38 37 37 36 36 35 35 34 34 33 33 34 35 36 36 36 36 35 35 35 37 38 40 42 43 43 42 41 41 41 41 40 39 37 34 32 31 31 30 29 28 27 25 23 21 19 18 18 19 19 20 21 21 21 21 21 21 21 21 21 21 21 21 22 22 22 22 23 23 22 21 21 20 20 21 21 21 22 23 24 25 25 23
39 38 38 37 36 35 35 34 34 33 33 32 32 32 33 35 36 36 36 35 34 34 35 37 39 41 43 43 43 42 41 41 40 40 39 37 35 33 31 31 31 31 30 29 27 25 22 19 17 17 17 17 18 19 20 21 21 21 21 21 21 21 21 21 21 22 22 22 22 22 22 22 22 22 21 20 20 20 20 20 20 21 22 22 22 20
39 38 37 36 35 34 33 33 32 32 31 31 30 31 33 35 36 36 36 35 34 34 35 37 40 42 43 44 43 42 41 40 39 38 37 36 34 32 31 31 32 32 31 29 26 23 20 17 16 16 16 16 17 18 19 20 21 21 21 21 21 21 21 21 21 21 21 21 21 20 20 21 21 22 22 22 21 20 19 18 18 18 19 20 19 17
38 37 36 35 34 33 33 32 32 31 30 30 30 32 34 35 37 37 36 35 34 34 36 38 40 43 44 44 43 41 40 40 38 37 36 35 33 31 31 31 32 31 30 28 25 21 17 15 14 14 15 15 16 17 19 20 20 20 20 20 21 21 21 21 21 21 21 21 20 20 20 20 21 21 22 22 22 21 20 18 17 17 18 17 16 16
36 35 34 34 33 32 32 32 31 30 30 30 31 32 35 36 37 38 38 36 35 35 36 38 41 43 44 44 43 41 40 39 38 37 35 34 32 30 30 31 31 31 30 28 24 19 14 12 12 13 14 15 16 17 18 19 20 19 19 19 20 20 21 21 21 21 21 21 20 20 20 21 21 22 22 22 22 21 21 20 19 19 18 17 16 15
34 34 33 32 31 31 31 31 30 30 29 29 30 32 35 37 38 39 39 37 36 36 37 39 41 43 44 43 42 41 40 39 37 36 35 33 31 30 30 31 31 30 29 27 24 19 13 11 11 12 14 15 16 17 18 19 19 19 19 19 19 20 21 21 21 21 21 20 20 20 21 21 22 22 22 22 21 21 21 21 22 21 20 18 17 16
33 32 31 31 30 30 30 30 30 29 27 26 28 31 35 37 39 39 39 37 37 37 38 40 41 42 42 42 41 41 41 40 38 36 35 33 31 30 30 31 30 29 27 26 25 22 17 13 11 11 13 15 16 17 18 19 19 19 18 18 18 19 20 21 21 20 20 20 20 20 21 22 23 23 23 23 22 21 21 22 23 23 22 21 19 17
33 32 31 30 29 29 29 29 29 27 25 24 26 30 34 36 38 38 37 36 36 37 39 40 41 41 41 40 40 41 42 41 39 37 34 32 31 30 30 30 30 28 26 24 23 22 21 17 14 13 14 15 16 17 18 18 19 18 18 18 18 19 19 20 20 20 19 19 19 19 20 21 22 23 24 24 23 22 21 22 22 23 23 22 21 19
34 33 32 31 29 28 27 28 27 26 25 24 25 28 31 33 34 34 34 35 36 38 40 41 40 39 39 39 39 41 41 41 39 37 34 32 31 30 30 30 29 27 25 22 21 20 20 19 18 16 15 16 16 16 17 18 18 18 18 18 18 18 19 20 19 19 18 18 18 19 19 20 21 23 23 24 23 23 22 22 22 22 22 22 21 20
35 34 33 32 30 28 27 27 26 25 24 24 25 27 29 30 31 32 34 36 38 40 40 40 38 37 37 38 39 40 41 40 39 36 34 32 30 30 30 29 28 26 24 22 20 19 18 18 19 18 18 17 16 16 16 17 17 17 17 17 18 18 19 19 19 19 18 18 18 19 19 20 21 22 23 23 23 23 22 22 22 21 22 21 21 20
35 34 33 32 31 30 28 27 25 24 23 24 25 27 29 31 33 35 37 39 40 41 40 38 36 35 36 37 39 40 41 40 38 36 33 31 29 29 29 28 27 25 23 21 20 19 18 17 18 19 19 18 17 16 16 16 16 16 16 16 17 18 19 19 19 19 19 19 19 20 20 21 21 22 22 23 23 23 23 22 22 21 21 20 20 19
36 34 33 31 30 30 29 28 26 25 25 26 28 30 32 34 36 38 39 40 40 39 37 35 34 34 35 37 39 40 41 40 38 35 32 30 29 28 28 27 26 24 23 21 20 19 18 18 18 18 19 19 18 17 16 15 16 15 15 15 16 17 18 19 20 20 20 20 21 21 22 22 22 22 22 22 22 22 22 22 21 21 20 19 19 18
36 34 32 30 29 29 29 28 28 27 28 30 32 34 35 36 38 38 39 39 37 35 33 32 32 33 35 38 39 40 41 40 38 35 32 29 28 27 27 26 24 23 22 21 20 20 19 19 19 19 19 19 19 18 17 16 16 15 15 15 15 16 18 19 20 20 21 21 22 22 23 23 23 23 22 22 22 21 21 21 20 19 18 17 17 17
36 34 31 29 28 28 29 29 29 30 31 32 33 34 34 35 35 35 35 34 33 31 30 30 31 33 35 38 39 41 41 40 37 34 31 29 27 27 26 25 23 22 20 20 20 20 20 20 20 20 20 19 19 19 19 18 18 16 15 15 15 16 17 19 20 20 21 22 22 23 23 23 23 23 22 22 21 20 20 19 18 17 16 15 15 15
35 33 30 27 26 27 28 30 31 31 31 31 30 29 29 30 31 31 31 31 30 29 28 29 31 33 35 37 39 40 40 38 36 33 30 28 27 26 26 24 23 21 19 19 19 19 20 20 21 21 21 20 19 19 19 19 19 19 17 16 15 15 17 18 19 20 21 21 22 23 23 23 23 23 22 22 21 20 19 18 17 15 14 13 13 13
34 32 30 28 27 28 29 30 32 32 31 28 26 25 26 27 28 28 28 29 28 28 28 29 30 32 34 36 38 39 38 37 34 32 29 28 27 26 25 24 22 20 19 18 18 19 19 20 21 21 21 21 21 20 19 19 20 20 19 18 16 16 16 17 18 19 20 21 23 23 24 23 23 23 22 21 21 20 19 17 16 14 13 13 12 12
33 32 31 30 30 30 31 32 33 33 30 26 24 24 25 26 27 27 27 27 28 28 28 29 30 32 34 35 37 37 37 35 33 31 29 27 26 25 24 23 22 20 19 18 18 18 19 20 20 21 21 21 21 20 19 19 20 20 20 19 18 17 16 17 17 19 20 22 23 25 25 25 24 23 22 21 20 19 18 17 15 14 13 12 12 12
32 31 30 30 31 32 33 34 34 32 28 25 24 25 26 26 26 25 25 26 27 28 28 29 30 31 33 35 36 36 35 33 31 29 27 26 25 25 24 23 21 20 19 18 18 18 18 19 20 21 21 21 21 20 19 19 19 19 19 19 19 18 17 16 17 19 21 23 25 26 26 26 25 23 21 20 19 17 16 15 14 13 13 12 12 12
31 30 29 29 30 31 32 32 32 30 27 25 25 26 26 26 25 25 25 26 27 28 28 29 30 32 33 34 34 34 33 31 29 28 26 25 24 24 23 22 21 20 19 19 18 18 18 18 19 20 20 20 20 20 19 18 18 18 18 19 19 18 17 17 17 19 22 24 25 26 26 25 24 22 20 19 18 16 15 14 14 13 13 13 13 13
30 29 28 28 28 28 29 29 28 27 25 25 26 26 26 25 25 24 25 26 27 28 28 29 31 33 34 34 33 32 30 29 27 26 25 24 23 23 22 21 21 20 20 19 19 18 18 18 18 19 19 19 19 19 18 18 17 17 17 18 18 18 18 18 19 21 23 24 25 26 25 24 23 21 19 17 16 15 14 13 13 13 13 13 13 13
30 28 27 27 26 26 25 25 24 24 24 25 26 26 25 24 24 24 25 27 28 28 29 30 32 33 34 33 32 30 28 26 25 24 23 23 22 22 21 20 20 20 20 20 20 19 19 18 18 18 18 18 18 18 18 17 17 17 17 17 17 17 17 19 21 23 25 25 25 25 24 23 21 19 17 15 14 14 13 13 12 12 12 12 13 13
29 27 26 25 24 23 22 21 21 21 23 24 24 24 23 23 24 25 26 27 28 28 29 31 32 33 32 32 30 28 26 25 23 22 21 21 21 21 20 20 19 19 20 20 20 20 19 19 18 17 16 16 16 16 17 17 17 17 16 16 16 16 18 20 22 24 25 25 25 24 22 21 19 17 15 13 13 13 13 12 12 12 12 11 11 11
27 26 25 24 22 21 19 19 20 21 22 22 22 22 22 23 24 25 26 27 27 28 29 31 32 32 31 30 28 27 25 24 22 20 19 19 19 19 18 18 18 19 19 20 21 21 20 19 18 17 16 15 15 15 15 16 16 16 16 16 16 17 19 21 23 24 24 25 24 23 21 19 17 15 13 12 11 11 12 12 12 12 11 11 10 9
25 24 23 22 21 20 19 19 20 20 19 19 20 21 22 23 24 24 25 26 26 28 29 31 31 30 29 27 26 25 25 23 21 19 18 17 17 17 17 17 17 17 18 19 21 21 21 19 17 16 15 14 14 14 14 14 15 16 16 16 17 18 20 22 23 23 23 23 22 21 20 19 17 15 14 12 11 11 11 11 11 11 10 10 9 9
23 22 22 21 20 20 19 18 18 18 18 20 21 22 22 22 23 23 24 25 26 28 29 30 29 28 26 25 25 24 24 22 21 19 17 17 16 16 15 15 15 15 16 17 19 21 21 20 17 15 14 13 13 13 13 13 14 14 15 17 18 20 21 22 22 22 22 21 20 19 18 17 16 15 15 14 12 11 11 11 10 10 9 9 9 9
22 21 20 20 19 18 17 16 17 18 19 20 21 21 21 22 22 23 23 25 27 29 29 29 28 26 25 24 23 23 23 21 20 18 16 16 15 15 14 14 14 14 14 15 16 18 20 20 18 15 12 12 12 12 12 12 12 13 15 17 19 20 21 21 21 20 19 19 18 17 16 15 15 15 15 15 13 12 11 10 10 10 9 9 10 10
20 19 19 17 16 14 14 15 17 18 19 19 20 20 21 21 22 23 25 26 28 29 29 28 26 25 23 23 22 22 22 21 19 17 16 15 15 14 14 13 13 13 13 13 13 15 16 18 18 15 13 11 11 12 12 12 12 14 15 17 19 20 20 20 19 18 17 16 16 15 14 14 15 15 16 15 14 12 11 10 10 10 10 10 10 11
Wind_Direction
316 316 316 316 317 317 318 318 318 318 317 317 316 315 315 313 312 311 310 310 309 308 308 307 306 306 305 304 303 303 302 302 301 301 300 300 299 299 299 299 298 298 298 298 298 297 297 297 296 296 295 294 293 292 291 290 289 288 287 286 285 284 283 281 280 278 277 277 276 276 276 277 277 277 277 278 278 279 281 282 282 282 281 280 280 279
316 316 316 317 317 318 319 319 318 318 318 317 317 316 315 314 313 312 311 310 309 308 308 307 306 305 305 304 303 303 303 302 302 301 301 301 300 300 300 299 299 299 299 299 299 299 298 298 297 297 296 295 294 292 291 289 287 286 285 284 284 283 282 280 278 277 276 275 275 275 276 276 277 277 278 278 279 278 278 279 280 280 280 279 279 279
316 316 317 317 318 318 319 319 319 318 318 317 317 316 315 314 313 312 311 310 309 308 307 306 305 305 304 304 304 304 303 303 303 303 302 302 301 301 301 301 300 300 300 300 300 299 299 298 298 297 296 295 293 292 290 288 286 285 284 283 282 281 280 278 277 276 275 275 275 275 276 276 277 277 278 279 279 279 278 278 278 277 277 277 277 277
317 317 318 318 318 319 319 319 319 318 318 317 317 316 315 313 312 311 310 309 308 307 306 305 305 305 304 304 304 305 305 305 304 304 304 304 303 303 303 302 302 301 301 300 300 299 298 297 296 295 294 293 292 291 290 288 286 285 283 282 280 279 278 276 275 274 274 274 274 275 275 276 276 277 278 279 280 280 279 279 277 276 275 274 274 274
317 318 318 318 319 319 319 319 319 318 318 317 316 315 314 312 311 310 309 308 307 306 305 305 305 305 305 305 306 306 306 306 306 306 306 305 305 304 304 303 302 302 301 300 299 298 297 296 295 294 293 292 291 290 289 288 286 285 283 282 280 278 276 275 274 273 273 273 274 274 274 275 275 276 277 278 278 278 278 277 276 275 273 272 271 271
318 318 318 318 319 319 319 319 318 318 317 316 315 314 313 311 310 309 308 307 306 306 305 305 305 306 306 307 307 308 308 307 307 307 307 306 306 305 304 303 302 302 301 300 300 299 297 296 294 293 292 291 290 290 289 288 286 285 283 281 280 278 276 274 273 272 271 271 272 272 272 274 275 276 276 276 276 276 276 276 275 274 273 271 269 268
318 318 318 318 318 318 318 318 318 317 316 315 314 313 312 311 309 308 307 307 307 306 306 306 307 308 308 309 309 309 309 309 308 308 307 306 305 304 304 303 303 303 303 302 302 301 300 299 297 295 294 292 291 290 289 288 286 285 283 281 279 278 276 274 273 271 271 270 270 270 272 273 275 275 275 274 275 275 274 274 274 273 271 270 268 267
318 318 318 318 318 318 318 317 317 316 315 314 313 313 312 310 309 308 308 308 308 308 308 309 309 309 310 311 311 311 311 310 310 309 308 306 306 305 305 305 305 305 306 305 305 305 304 303 301 299 297 296 294 293 291 289 287 285 283 281 279 278 276 275 273 272 271 270 270 270 271 272 273 273 273 273 273 273 272 272 272 272 271 270 269 269
318 318 318 318 317 317 317 316 316 315 314 314 313 312 311 310 309 309 309 309 309 310 310 310 311 312 312 312 312 312 312 311 311 310 309 308 308 308 309 309 309 309 309 309 309 308 307 306 305 303 301 299 297 296 294 292 289 287 284 282 280 278 276 274 273 272 271 271 270 270 271 271 271 272 272 273 273 273 273 273 273 273 273 272 272 271
318 317 317 317 316 316 316 315 315 314 314 313 313 312 311 310 310 310 310 310 310 311 311 312 313 314 314 314 314 313 313 312 311 311 311 311 311 312 313 313 313 313 313 312 312 311 310 309 307 306 304 302 300 298 296 294 292 289 287 284 281 278 275 273 272 271 271 271 271 271 272 272 273 274 274 275 275 276 276 276 276 276 276 276 275 274
317 316 316 316 315 315 315 314 314 313 313 313 313 312 311 311 310 310 310 310 311 312 312 313 314 315 315 315 314 314 314 313 313 313 314 314 315 316 316 316 316 316 315 315 314 313 312 311 309 308 306 304 302 299 297 295 293 291 289 286 283 280 276 274 272 271 271 271 272 272 273 274 276 277 277 278 278 279 279 279 279 279 278 278 277 277
315 315 315 314 314 314 314 314 313 313 313 313 313 312 311 311 310 310 311 311 312 313 314 314 315 315 315 315 315 315 316 316 316 316 317 318 318 319 319 318 318 318 317 316 315 314 313 312 311 309 308 306 303 301 299 296 294 292 290 288 285 283 280 278 276 274 274 274 274 275 277 278 279 280 280 281 281 281 281 281 280 280 280 279 279 278
314 314 313 313 313 314 313 313 313 313 313 313 312 312 311 311 311 311 311 311 312 313 314 315 315 315 316 316 317 318 319 319 319 319 320 320 321 321 321 320 319 318 318 317 316 316 315 314 312 311 309 307 305 303 300 298 296 294 292 290 288 287 285 283 282 280 280 280 280 280 281 282 282 282 282 282 282 282 282 282 281 281 281 281 280 280
313 313 313 313 313 313 313 313 313 313 313 313 312 312 311 311 311 311 311 311 312 313 315 315 315 315 316 318 319 321 322 322 321 321 321 321 322 322 321 320 320 319 319 318 318 317 317 315 314 312 310 308 306 304 302 301 299 298 296 295 293 292 290 289 288 287 286 286 285 285 285 285 284 284 284 284 284 284 284 284 284 284 284 284 284 284
313 313 313 313 313 313 313 313 313 313 313 313 312 312 311 311 311 310 311 311 312 313 315 315 315 316 317 319 322 323 323 323 322 321 321 321 322 322 322 321 320 320 319 319 319 319 318 316 315 313 311 309 307 306 305 305 304 303 302 300 299 297 296 295 293 293 292 291 291 290 289 289 288 288 288 288 288 288 287 287 287 287 287 288 288 288
313 313 313 313 313 313 313 312 312 312 312 312 311 311 311 310 310 310 310 311 313 314 315 316 316 316 317 319 322 324 324 323 322 321 321 322 322 323 322 321 321 320 320 320 320 320 319 317 315 313 312 310 309 308 308 308 308 307 307 306 305 304 302 301 300 300 299 298 298 297 296 295 294 294 293 293 292 291 291 290 290 290 290 290 290 289
313 312 312 312 312 312 312 311 311 311 311 311 311 310 310 310 309 310 310 312 313 315 316 317 317 317 318 320 323 325 325 323 321 321 322 322 323 323 323 322 321 320 320 320 321 321 320 318 316 314 312 311 310 310 310 310 310 310 310 310 309 309 309 308 308 307 306 305 304 303 301 300 299 298 297 296 295 294 293 293 292 291 291 290 290 289
312 311 311 311 311 310 310 310 311 311 310 310 310 310 310 309 309 309 310 312 314 316 316 317 318 319 321 323 324 326 325 323 322 322 322 322 322 323 323 322 321 320 321 322 322 322 321 319 318 316 314 312 311 311 311 312 312 312 313 313 313 314 314 314 313 312 311 310 308 307 305 304 302 301 299 298 297 296 295 295 294 293 293 292 291 290
310 310 310 309 309 309 309 309 309 309 309 309 309 309 308 308 308 308 310 312 314 315 316 317 319 321 323 324 325 326 325 324 322 322 321 321 322 322 322 321 320 320 321 323 324 324 323 321 319 317 314 313 311 311 311 312 313 314 315 316 317 318 318 317 317 316 314 312 311 309 308 306 304 303 302 301 300 299 299 299 298 297 296 295 293 291
308 308 307 307 307 307 307 307 308 308 307 307 307 307 307 307 307 308 309 312 313 315 316 318 321 323 325 326 326 326 325 324 322 321 321 320 321 322 322 321 321 321 323 325 327 327 325 323 320 317 314 312 311 311 312 313 314 316 318 319 320 321 321 320 319 318 316 315 313 312 310 308 307 306 305 304 304 304 305 305 304 304 303 301 298 294
306 306 306 305 305 305 305 306 306 306 306 306 306 306 306 306 306 307 309 311 313 314 316 319 322 325 327 327 326 326 325 324 322 321 320 320 321 322 323 322 322 323 325 328 329 329 327 324 320 317 314 312 311 311 312 313 316 318 320 322 323 323 322 321 320 319 318 317 316 314 313 312 311 310 310 311 312 313 313 313 312 311 308 304 300 296
304 304 304 304 303 303 303 304 304 304 304 304 304 304 304 304 305 307 309 311 312 315 318 321 324 326 327 326 326 325 325 324 323 321 320 320 321 322 323 323 324 325 328 330 330 329 327 324 320 316 313 311 310 311 312 314 317 319 322 323 324 323 323 322 321 321 321 320 319 318 317 317 317 318 319 321 322 321 319 318 315 311 307 303 299 295
302 303 302 302 302 302 302 302 303 303 303 303 302 302 302 303 304 306 308 310 312 315 319 322 324 325 325 325 325 325 325 324 323 321 320 320 321 323 325 325 325 327 329 331 331 329 327 324 320 315 311 309 309 311 313 315 318 321 323 324 324 324 323 323 323 324 325 325 324 324 323 323 325 326 328 327 325 321 317 315 313 309 305 301 298 295
301 301 301 301 301 301 301 301 301 301 301 301 301 300 301 302 303 306 308 310 312 315 319 321 322 323 324 324 324 325 325 325 323 322 320 320 322 324 326 327 328 328 330 332 331 330 327 324 319 314 310 309 309 311 313 316 319 322 323 324 325 324 324 325 327 328 329 329 328 328 328 329 330 331 328 325 322 318 314 312 310 307 305 302 300 297
300 300 300 299 299 299 299 299 299 299 299 299 300 300 301 302 304 306 308 310 313 315 317 318 319 320 321 323 323 325 326 326 325 323 322 322 323 326 328 329 329 329 330 331 331 330 327 323 318 313 309 309 310 312 315 317 320 322 324 325 325 325 326 327 329 330 330 330 330 329 330 331 332 331 328 324 320 316 313 310 309 307 305 303 301 300
299 299 299 298 298 297 297 297 297 297 297 298 300 301 302 303 305 308 310 312 313 314 314 313 314 317 319 321 323 325 327 328 326 324 322 323 325 327 329 330 330 330 330 331 331 330 328 324 318 313 311 311 312 314 316 318 320 323 324 325 325 325 326 328 329 329 328 328 328 328 329 330 331 331 329 325 320 316 312 309 307 306 304 302 301 302
299 298 298 297 297 296 296 296 296 296 297 299 300 301 302 304 307 310 311 312 312 311 310 310 311 314 317 319 322 326 328 329 327 324 323 323 325 327 329 330 330 330 329 330 331 331 329 325 320 316 315 315 316 317 318 319 321 323 324 324 324 324 325 326 326 325 324 324 324 326 327 329 329 329 329 327 324 320 316 312 308 305 303 302 304 307
298 298 297 297 297 296 296 296 296 296 297 299 300 301 304 307 309 310 310 310 309 308 307 307 309 312 315 318 321 325 328 329 327 324 323 323 324 326 329 330 330 330 329 329 331 332 332 328 323 320 320 320 320 320 319 320 321 322 323 322 322 322 322 322 321 320 319 320 322 324 326 328 329 329 329 328 327 325 323 319 314 309 306 308 311 314
297 297 296 296 296 295 295 294 294 295 297 299 301 304 306 306 307 307 307 307 306 305 304 305 308 311 314 317 320 324 328 329 327 324 323 323 323 325 328 330 331 331 330 329 330 333 335 334 330 326 325 324 324 322 321 321 321 321 321 320 319 318 318 317 317 316 317 319 322 324 326 328 328 329 328 328 327 326 324 322 318 314 312 313 315 317
297 296 295 294 293 293 292 292 292 293 296 301 303 303 302 301 301 302 303 303 301 301 302 304 308 311 313 316 319 323 327 328 327 324 323 322 323 325 328 330 332 332 331 330 330 332 336 338 336 333 330 329 327 325 323 322 321 321 320 318 316 315 314 314 314 315 318 321 323 325 327 328 328 328 327 326 325 323 321 319 318 317 316 316 315 314
296 295 293 292 291 290 289 289 290 293 297 300 299 296 293 293 293 295 296 297 297 297 300 304 307 310 313 316 319 323 327 328 327 324 323 322 323 325 329 331 333 333 332 330 330 331 332 335 338 338 336 333 331 328 325 323 322 321 320 318 315 313 313 312 314 317 320 323 325 326 327 327 327 326 325 324 322 320 318 317 316 317 317 317 316 314
297 294 292 289 288 288 288 289 291 294 297 296 292 288 285 285 286 288 290 292 294 297 301 304 307 310 312 315 319 323 326 327 326 324 323 322 323 326 329 331 333 333 332 330 330 330 331 332 336 339 341 339 335 331 327 324 323 322 320 318 315 313 312 313 316 319 323 325 325 326 325 325 324 323 322 321 319 317 316 314 314 315 316 317 317 317
298 295 292 289 287 286 287 288 291 294 296 295 290 285 282 282 283 286 288 290 294 298 302 305 307 309 312 315 319 322 325 326 325 324 323 322 323 325 329 331 332 332 331 330 329 329 331 332 334 338 343 344 340 334 329 325 323 321 320 318 316 314 313 315 318 322 325 326 326 325 324 322 321 320 319 318 317 316 314 312 312 313 315 316 318 320
299 297 295 292 289 286 285 286 288 292 295 293 288 284 282 283 284 286 289 292 296 300 303 306 307 309 312 315 319 321 324 325 325 324 323 322 323 325 328 330 331 330 329 329 328 329 330 331 333 336 341 344 342 336 330 326 323 321 319 317 316 315 315 316 319 323 326 327 327 325 323 321 320 319 318 317 317 315 314 312 311 311 313 315 317 319
299 298 297 295 292 289 286 285 285 287 287 284 281 280 280 282 285 288 291 294 298 301 303 305 307 309 313 316 318 321 323 324 324 323 322 322 322 324 327 329 329 329 328 328 328 328 330 332 334 336 338 341 341 337 331 326 323 320 318 316 315 314 315 317 320 324 327 329 328 326 324 322 321 320 319 318 317 315 314 313 313 312 313 314 315 317
298 297 297 297 297 295 292 288 284 281 277 275 274 275 277 281 284 288 292 295 298 301 302 304 307 310 314 316 318 320 322 323 323 322 321 321 322 323 325 327 328 328 327 327 327 328 329 332 334 336 336 338 338 336 332 327 323 320 317 315 313 313 314 317 321 325 328 329 329 328 326 324 323 322 320 319 317 316 315 314 314 314 313 314 315 316
298 297 297 298 298 297 295 292 287 282 277 275 274 275 278 281 285 289 293 296 299 300 302 305 309 313 314 316 317 319 321 322 322 321 320 320 321 323 324 326 326 327 326 326 327 327 329 331 334 335 335 335 335 334 331 327 323 320 317 315 314 313 314 317 322 326 328 329 329 329 328 326 325 324 322 320 317 316 315 315 314 314 314 314 315 316
296 296 296 296 295 294 293 292 290 287 285 282 280 280 282 285 289 292 295 298 299 301 304 308 311 313 313 314 315 318 320 321 321 320 320 320 320 321 323 324 325 326 325 326 326 327 328 330 332 333 334 334 333 332 330 327 325 323 321 320 318 316 316 318 322 325 327 329 329 329 329 329 328 326 324 321 318 317 316 316 315 315 314 313 314 315
294 293 292 290 288 287 287 288 290 290 290 289 287 286 287 288 290 292 295 297 300 303 306 309 311 311 311 312 315 317 319 320 320 319 319 318 319 320 322 323 324 324 325 325 325 326 327 328 329 330 331 331 332 331 329 327 326 326 326 326 324 320 319 320 322 325 328 330 331 332 332 332 331 330 327 324 321 319 319 318 318 317 315 313 312 312
292 291 287 282 279 278 281 284 287 289 291 291 291 290 289 288 288 290 294 297 301 304 307 308 308 308 309 312 314 317 319 319 319 318 318 317 318 319 321 322 323 323 323 324 324 325 325 326 327 327 328 329 330 330 329 327 327 327 329 330 328 326 324 324 325 328 330 333 335 336 336 336 335 334 331 328 325 323 322 322 321 320 318 316 313 312
292 290 286 280 275 274 275 278 282 285 288 289 289 288 285 284 286 290 296 299 302 304 305 305 305 307 309 312 315 317 318 319 318 317 316 316 317 318 320 321 321 322 322 322 322 323 324 324 325 325 326 327 327 328 329 328 328 328 330 330 331 330 330 329 330 333 336 339 340 340 340 339 338 336 334 331 328 326 325 325 325 324 322 321 319 318
292 290 286 282 277 274 274 276 278 280 281 281 281 281 281 283 287 293 298 301 301 301 301 301 303 306 309 313 315 317 318 318 317 316 315 315 316 317 319 319 320 320 320 320 320 321 322 323 324 324 325 325 326 327 328 329 329 329 330 330 331 331 331 333 335 339 342 344 344 343 341 340 340 338 336 333 330 329 328 328 328 328 327 326 326 325
292 290 287 283 280 277 276 276 276 275 274 272 274 276 278 283 289 294 298 299 297 296 297 299 302 305 309 312 315 317 317 317 316 315 313 313 314 316 317 318 318 318 318 318 319 320 321 323 324 324 324 324 324 325 327 329 331 331 330 330 330 331 332 336 340 345 347 347 346 343 342 340 340 339 337 335 333 331 331 331 331 331 331 331 331 331
292 290 287 284 281 279 277 276 274 271 268 268 270 273 278 283 289 294 296 295 293 293 295 298 302 306 309 313 315 316 317 316 315 313 312 312 313 315 316 317 317 316 317 317 318 319 321 323 324 324 324 323 323 324 326 329 331 332 331 331 331 333 336 341 346 349 350 348 345 343 341 340 340 340 339 336 334 333 333 334 334 334 335 335 335 335
294 291 287 284 282 279 277 275 271 268 265 266 268 273 279 285 290 292 292 290 290 292 295 299 303 307 311 313 315 315 316 316 315 313 311 312 313 314 316 316 316 315 316 316 318 320 322 324 325 326 325 324 323 324 326 329 331 333 333 332 333 336 342 348 352 352 351 347 344 341 340 340 341 342 341 339 337 336 336 337 338 338 339 340 339 338
295 292 288 285 281 278 275 272 268 265 264 265 270 276 283 287 289 288 287 287 289 292 297 301 305 309 312 313 314 314 315 315 314 312 311 311 312 314 315 315 315 314 315 316 317 319 322 325 327 328 327 325 324 325 326 329 331 333 334 334 337 344 351 355 355 352 348 345 342 341 340 341 343 344 345 344 342 341 341 342 344 345 346 346 345 345
295 293 289 285 280 275 269 264 261 260 263 269 276 282 284 284 284 283 284 287 291 295 299 303 307 310 312 313 314 314 315 315 314 312 311 311 312 314 314 314 314 313 314 315 316 318 322 326 329 330 329 328 327 327 327 329 330 332 334 338 344 352 358 358 354 350 346 344 342 341 341 343 345 348 351 351 351 350 351 352 352 351 352 354 355 357
295 293 290 286 280 272 264 258 256 259 265 272 277 278 278 278 280 282 286 291 295 299 303 306 309 311 312 312 313 314 315 316 315 313 312 313 313 314 313 313 312 312 313 314 315 317 321 326 330 332 332 330 329 328 328 329 330 333 337 344 352 357 359 356 352 348 346 343 342 341 341 343 346 351 357 1 5 5 5 3 1 0 2 6 11 17
294 292 290 287 282 274 265 259 257 260 265 269 271 272 274 277 281 286 291 296 300 303 305 307 309 310 311 311 312 313 315 315 315 314 314 315 315 315 314 312 311 311 312 313 315 317 320 325 331 335 335 332 330 329 330 331 333 338 345 353 357 358 356 353 351 348 346 344 342 341 342 343 347 354 2 9 16 20 18 14 12 13 17 23 30 37
294 292 290 287 282 275 267 260 258 259 262 265 269 272 276 281 287 292 298 301 303 305 306 307 309 309 309 310 311 313 315 316 316 315 316 316 317 316 315 313 311 311 311 312 313 314 316 321 328 335 338 335 331 330 333 337 342 349 356 359 359 356 352 351 350 349 347 345 343 343 344 346 352 360 8 16 25 30 30 25 24 27 34 39 44 48
293 292 289 285 279 270 262 256 255 257 262 266 271 275 281 287 294 300 303 304 304 305 306 307 307 307 308 309 311 313 315 316 317 317 317 318 318 318 317 315 313 312 312 313 313 312 313 316 323 331 339 340 336 335 341 347 356 2 4 2 357 353 350 351 352 352 350 347 345 345 348 352 359 6 14 22 32 41 46 43 41 43 48 50 51 51
Height
3040 3039 3037 3036 3035 3033 3032 3031 3029 3027 3026 3024 3023 3021 3019 3017 3015 3012 3010 3008 3006 3004 3002 3001 2999 2997 2995 2994 2992 2990 2988 2987 2985 2983 2981 2979 2977 2976 2974 2972 2970 2968 2966 2964 2962 2960 2959 2957 2955 2954 2952 2951 2949 2948 2947 2946 2944 2942 2941 2939 2938 2937 2936 2935 2934 2933 2932 2932 2931 2931 2930 2929 2929 2928 2927 2927 2927 2926 2925 2924 2924 2923 2922 2922 2922 2922
3037 3036 3034 3032 3031 3030 3028 3027 3026 3024 3022 3020 3018 3017 3015 3013 3011 3009 3007 3005 3002 3001 2999 2997 2995 2993 2992 2990 2988 2987 2985 2983 2982 2980 2978 2976 2974 2972 2971 2969 2967 2965 2962 2961 2959 2957 2955 2953 2952 2950 2949 2947 2946 2944 2943 2942 2940 2939 2937 2936 2935 2934 2932 2932 2931 2930 2929 2928 2927 2927 2927 2926 2926 2925 2924 2923 2923 2923 2923 2922 2922 2921 2920 2919 2919 2919
3034 3032 3031 3029 3027 3026 3025 3023 3022 3020 3018 3016 3014 3012 3011 3009 3007 3005 3003 3001 2999 2997 2995 2993 2992 2990 2988 2987 2985 2984 2982 2980 2978 2977 2975 2973 2971 2969 2967 2965 2963 2961 2959 2957 2956 2954 2952 2950 2948 2947 2945 2943 2942 2941 2939 2938 2937 2935 2934 2932 2931 2930 2929 2928 2927 2927 2926 2925 2924 2924 2923 2923 2922 2922 2921 2920 2920 2920 2920 2919 2918 2918 2917 2917 2917 2916
3031 3028 3027 3025 3024 3022 3021 3020 3018 3016 3015 3013 3011 3009 3007 3005 3003 3001 2999 2997 2996 2994 2992 2990 2988 2987 2985 2983 2982 2980 2979 2977 2975 2973 2971 2969 2967 2966 2964 2962 2960 2958 2956 2954 2952 2951 2949 2947 2945 2943 2942 2940 2938 2937 2936 2934 2933 2932 2930 2929 2928 2927 2926 2925 2924 2923 2922 2922 2921 2921 2920 2919 2919 2918 2918 2917 2917 2917 2916 2916 2915 2914 2914 2914 2913 2913
3027 3025 3023 3022 3020 3018 3017 3016 3014 3013 3011 3009 3008 3006 3004 3002 3000 2998 2996 2994 2992 2991 2989 2987 2985 2984 2982 2980 2978 2977 2975 2973 2972 2970 2968 2966 2964 2962 2960 2958 2957 2955 2953 2952 2950 2948 2946 2944 2942 2941 2939 2937 2935 2934 2932 2931 2929 2928 2927 2926 2924 2923 2922 2922 2921 2920 2919 2919 2918 2917 2917 2916 2916 2916 2915 2915 2914 2913 2913 2912 2912 2911 2911 2910 2910 2910
3024 3022 3020 3018 3016 3015 3014 3012 3011 3009 3007 3006 3004 3002 3001 2998 2996 2994 2992 2991 2989 2987 2986 2984 2982 2981 2979 2977 2975 2973 2972 2970 2968 2966 2964 2962 2961 2959 2957 2955 2953 2952 2950 2948 2947 2945 2943 2942 2940 2937 2936 2934 2932 2930 2929 2927 2926 2924 2923 2922 2921 2920 2919 2918 2917 2917 2916 2915 2915 2914 2913 2913 2913 2913 2912 2911 2910 2910 2909 2909 2908 2908 2907 2907 2906 2906
3020 3019 3017 3015 3013 3011 3010 3009 3007 3006 3004 3002 3000 2999 2997 2995 2993 2991 2989 2987 2986 2984 2982 2980 2979 2977 2976 2974 2972 2970 2968 2967 2965 2963 2961 2959 2957 2956 2954 2952 2950 2948 2947 2945 2943 2942 2940 2938 2936 2934 2932 2931 2929 2927 2926 2924 2922 2921 2920 2918 2917 2917 2916 2915 2914 2914 2913 2912 2911 2911 2911 2911 2910 2909 2909 2907 2907 2907 2906 2905 2905 2904 2903 2902 2902 2902
3017 3015 3014 3012 3010 3008 3007 3006 3004 3003 3000 2998 2996 2995 2993 2991 2989 2987 2986 2984 2982 2980 2978 2976 2975 2974 2972 2971 2969 2967 2964 2963 2961 2960 2958 2956 2954 2952 2951 2949 2947 2945 2943 2942 2940 2938 2936 2934 2932 2931 2929 2927 2926 2924 2922 2921 2919 2918 2917 2915 2914 2913 2913 2912 2912 2911 2910 2909 2908 2908 2908 2907 2907 2906 2905 2904 2903 2903 2902 2901 2901 2900 2899 2899 2898 2898
3014 3012 3011 3009 3007 3006 3003 3002 3001 3000 2998 2995 2993 2991 2989 2987 2984 2983 2982 2981 2979 2977 2975 2973 2971 2970 2968 2967 2966 2964 2962 2959 2957 2956 2955 2952 2950 2948 2947 2945 2944 2942 2940 2938 2936 2934 2932 2931 2929 2927 2925 2923 2922 2920 2919 2917 2916 2915 2913 2912 2911 2911 2910 2909 2908 2907 2906 2906 2905 2904 2904 2903 2902 2902 2901 2901 2900 2899 2899 2898 2897 2897 2896 2895 2895 2895
3011 3009 3007 3006 3004 3003 3001 2999 2997 2996 2995 2992 2990 2987 2985 2983 2981 2978 2977 2977 2976 2974 2972 2970 2968 2966 2964 2962 2962 2960 2959 2957 2955 2953 2952 2949 2947 2945 2943 2942 2940 2938 2937 2935 2933 2931 2929 2927 2925 2924 2922 2920 2918 2917 2915 2914 2912 2911 2910 2909 2908 2907 2906 2905 2904 2904 2903 2902 2901 2901 2900 2900 2899 2899 2898 2897 2897 2896 2895 2895 2894 2893 2892 2892 2891 2891
3008 3007 3005 3003 3001 3000 2998 2997 2995 2993 2992 2990 2987 2984 2982 2980 2978 2976 2973 2972 2971 2970 2969 2967 2965 2964 2962 2959 2957 2956 2955 2954 2952 2950 2948 2946 2944 2942 2941 2939 2937 2935 2933 2932 2930 2928 2926 2924 2922 2920 2918 2917 2915 2913 2912 2910 2909 2908 2907 2906 2905 2904 2903 2902 2901 2900 2899 2899 2898 2897 2897 2896 2896 2895 2895 2894 2893 2892 2891 2891 2890 2889 2888 2887 2886 2886
3006 3004 3002 3000 2999 2997 2996 2994 2992 2990 2988 2987 2984 2982 2979 2977 2975 2973 2971 2969 2967 2967 2966 2964 2962 2961 2960 2957 2955 2952 2951 2950 2948 2946 2944 2942 2941 2939 2937 2935 2934 2932 2930 2928 2927 2925 2923 2921 2919 2917 2915 2913 2912 2910 2908 2907 2906 2905 2903 2902 2901 2900 2899 2899 2898 2897 2897 2896 2895 2895 2894 2893 2892 2892 2891 2890 2889 2888 2887 2886 2885 2884 2883 2882 2882 2881
3003 3001 2999 2997 2996 2994 2993 2991 2989 2987 2985 2983 2982 2979 2977 2974 2972 2970 2968 2966 2965 2963 2963 2961 2959 2957 2956 2955 2952 2950 2947 2946 2944 2943 2941 2939 2938 2936 2934 2932 2930 2929 2927 2925 2923 2921 2919 2917 2915 2913 2912 2910 2908 2907 2905 2904 2902 2902 2900 2899 2898 2897 2897 2896 2895 2894 2893 2893 2892 2892 2891 2890 2889 2888 2887 2887 2886 2885 2884 2882 2882 2881 2880 2879 2878 2877
3000 2998 2996 2994 2993 2991 2989 2987 2986 2984 2982 2980 2978 2976 2974 2972 2970 2968 2966 2964 2962 2961 2960 2958 2957 2955 2953 2952 2950 2947 2945 2943 2941 2940 2938 2937 2936 2934 2931 2929 2927 2926 2924 2922 2919 2918 2916 2914 2912 2910 2908 2906 2905 2903 2902 2901 2900 2899 2898 2897 2896 2895 2894 2893 2892 2892 2891 2890 2889 2889 2888 2887 2886 2885 2884 2883 2882 2882 2880 2879 2878 2877 2877 2876 2875 2874
2997 2995 2992 2990 2989 2987 2986 2984 2982 2980 2978 2977 2976 2973 2971 2969 2967 2965 2964 2962 2960 2958 2957 2956 2954 2952 2951 2950 2948 2946 2943 2940 2938 2937 2936 2934 2933 2931 2929 2926 2924 2922 2921 2919 2917 2915 2913 2911 2908 2907 2905 2903 2902 2900 2899 2898 2897 2896 2895 2894 2893 2892 2892 2891 2890 2889 2888 2887 2887 2886 2885 2884 2883 2882 2882 2881 2880 2879 2877 2877 2876 2875 2874 2873 2872 2872
2993 2991 2989 2987 2985 2984 2982 2981 2979 2977 2976 2974 2972 2971 2969 2967 2965 2962 2961 2959 2958 2956 2955 2953 2951 2949 2948 2947 2947 2945 2942 2938 2936 2934 2933 2931 2930 2929 2926 2923 2921 2919 2918 2916 2914 2912 2910 2908 2906 2904 2902 2901 2899 2898 2897 2896 2895 2894 2893 2892 2891 2890 2889 2888 2888 2887 2886 2886 2885 2884 2883 2882 2881 2880 2879 2878 2877 2876 2875 2874 2873 2872 2872 2871 2870 2869
2989 2987 2986 2984 2982 2981 2979 2978 2976 2975 2973 2972 2970 2968 2967 2965 2963 2961 2959 2957 2956 2954 2952 2951 2949 2947 2945 2944 2943 2942 2940 2937 2933 2931 2930 2928 2927 2926 2924 2921 2918 2917 2915 2914 2912 2910 2908 2906 2904 2902 2900 2899 2897 2896 2895 2894 2893 2892 2892 2890 2889 2888 2887 2887 2886 2885 2884 2883 2882 2882 2880 2880 2878 2877 2877 2876 2874 2873 2872 2872 2871 2870 2869 2868 2867 2867
2986 2985 2983 2981 2979 2978 2977 2975 2973 2972 2970 2969 2967 2966 2964 2962 2961 2959 2957 2955 2954 2952 2950 2948 2947 2945 2943 2941 2940 2939 2938 2935 2931 2929 2927 2926 2925 2923 2922 2919 2917 2914 2913 2912 2910 2908 2906 2904 2902 2900 2899 2897 2896 2894 2893 2892 2892 2891 2890 2889 2888 2887 2886 2885 2884 2883 2882 2881 2880 2879 2878 2877 2876 2875 2874 2873 2872 2871 2870 2869 2868 2867 2867 2866 2865 2865
2984 2982 2981 2979 2977 2975 2973 2973 2972 2970 2968 2966 2965 2963 2962 2960 2958 2957 2955 2954 2952 2951 2949 2947 2945 2943 2942 2940 2938 2937 2935 2933 2930 2927 2925 2923 2922 2921 2920 2917 2915 2912 2911 2910 2908 2906 2904 2903 2901 2899 2897 2896 2894 2893 2892 2891 2890 2889 2888 2887 2886 2885 2884 2883 2882 2882 2881 2880 2879 2877 2877 2875 2874 2873 2872 2871 2870 2869 2868 2867 2867 2866 2865 2864 2863 2863
2982 2980 2979 2977 2975 2973 2971 2970 2969 2968 2966 2964 2962 2961 2960 2958 2957 2955 2953 2952 2951 2949 2947 2945 2943 2941 2940 2938 2937 2935 2933 2931 2928 2925 2923 2921 2920 2919 2917 2915 2912 2911 2909 2908 2907 2905 2903 2901 2900 2898 2896 2895 2893 2892 2891 2890 2889 2888 2887 2886 2885 2884 2883 2882 2881 2880 2879 2878 2877 2876 2875 2874 2872 2871 2870 2869 2869 2868 2867 2866 2866 2865 2863 2863 2862 2861
2979 2977 2976 2975 2973 2971 2969 2968 2967 2966 2964 2962 2961 2959 2957 2956 2954 2953 2952 2951 2949 2947 2945 2943 2942 2940 2938 2937 2935 2934 2932 2929 2926 2923 2921 2919 2918 2917 2915 2913 2910 2909 2907 2907 2905 2904 2902 2900 2898 2897 2895 2893 2892 2891 2889 2888 2887 2887 2886 2885 2884 2883 2882 2881 2880 2879 2878 2877 2876 2874 2873 2872 2871 2870 2869 2868 2867 2867 2866 2865 2864 2863 2864 2863 2861 2859
2977 2975 2974 2972 2971 2969 2968 2966 2965 2964 2962 2961 2959 2957 2955 2954 2952 2951 2949 2948 2947 2945 2943 2941 2940 2938 2937 2936 2934 2932 2931 2928 2925 2922 2919 2917 2916 2915 2914 2911 2909 2907 2906 2905 2904 2902 2901 2899 2897 2895 2894 2892 2891 2889 2888 2887 2886 2885 2884 2883 2882 2882 2880 2879 2878 2877 2877 2876 2874 2873 2872 2871 2870 2869 2868 2867 2867 2866 2865 2864 2864 2863 2862 2860 2858 2857
2975 2973 2972 2970 2969 2967 2966 2964 2963 2962 2960 2959 2957 2955 2954 2952 2951 2949 2948 2947 2945 2943 2941 2939 2938 2937 2936 2934 2933 2931 2929 2927 2924 2921 2917 2915 2914 2913 2912 2909 2907 2906 2904 2903 2902 2901 2899 2897 2896 2894 2892 2891 2890 2888 2887 2886 2885 2884 2883 2882 2881 2880 2879 2878 2877 2876 2875 2874 2873 2872 2871 2870 2869 2868 2867 2867 2867 2866 2865 2863 2862 2861 2859 2858 2857 2855
2972 2971 2969 2968 2967 2965 2963 2962 2961 2959 2958 2957 2955 2954 2952 2951 2949 2948 2946 2945 2942 2940 2939 2937 2936 2935 2934 2933 2932 2930 2928 2926 2922 2919 2916 2914 2912 2911 2910 2907 2905 2904 2903 2902 2900 2899 2897 2896 2894 2893 2891 2890 2888 2887 2886 2885 2884 2883 2882 2881 2880 2879 2878 2877 2876 2875 2874 2873 2872 2871 2870 2869 2868 2867 2867 2867 2866 2865 2864 2862 2861 2860 2859 2857 2856 2854
2970 2968 2967 2966 2964 2963 2961 2960 2958 2957 2956 2955 2953 2952 2950 2949 2947 2946 2944 2942 2940 2938 2937 2936 2935 2933 2932 2931 2930 2929 2927 2924 2921 2917 2914 2912 2911 2910 2908 2906 2904 2902 2901 2900 2899 2897 2896 2894 2893 2892 2890 2889 2887 2886 2885 2884 2883 2882 2881 2880 2879 2877 2877 2876 2875 2874 2873 2872 2871 2870 2869 2867 2867 2867 2866 2865 2864 2863 2862 2860 2859 2858 2857 2856 2854 2852
2967 2966 2965 2963 2962 2961 2959 2958 2957 2955 2954 2952 2952 2951 2949 2947 2945 2943 2942 2940 2938 2937 2935 2934 2933 2932 2931 2930 2928 2927 2925 2922 2919 2916 2913 2911 2909 2908 2907 2905 2903 2901 2899 2898 2897 2896 2894 2893 2892 2890 2889 2888 2887 2886 2884 2883 2882 2881 2880 2879 2877 2877 2875 2875 2874 2873 2872 2871 2870 2869 2868 2867 2866 2865 2864 2863 2862 2861 2860 2859 2858 2857 2856 2853 2852 2850
2964 2963 2962 2961 2960 2958 2957 2956 2954 2953 2952 2951 2950 2950 2947 2944 2942 2941 2940 2938 2937 2935 2934 2932 2931 2930 2929 2928 2927 2925 2923 2921 2917 2914 2912 2909 2908 2906 2905 2903 2902 2899 2897 2897 2896 2894 2893 2891 2890 2889 2888 2887 2886 2885 2883 2882 2881 2880 2879 2878 2877 2876 2875 2874 2873 2872 2871 2870 2869 2868 2867 2866 2865 2864 2862 2861 2860 2859 2858 2857 2856 2854 2853 2851 2849 2848
2962 2960 2959 2958 2957 2956 2954 2953 2952 2951 2950 2949 2948 2947 2944 2942 2941 2939 2938 2937 2935 2934 2932 2931 2929 2927 2926 2925 2924 2923 2922 2919 2916 2913 2911 2909 2907 2905 2904 2902 2900 2898 2897 2895 2894 2894 2892 2891 2889 2888 2887 2886 2885 2884 2882 2881 2880 2879 2878 2877 2876 2875 2874 2873 2872 2872 2871 2870 2868 2867 2866 2865 2864 2862 2861 2860 2858 2857 2856 2855 2853 2852 2851 2849 2848 2847
2959 2958 2957 2955 2954 2953 2952 2951 2950 2949 2948 2947 2946 2944 2942 2940 2939 2938 2936 2935 2934 2932 2931 2930 2928 2926 2924 2923 2922 2922 2920 2918 2915 2912 2910 2907 2906 2904 2903 2901 2899 2897 2895 2894 2893 2893 2892 2890 2889 2887 2887 2885 2884 2883 2882 2881 2879 2878 2877 2877 2875 2874 2873 2872 2872 2871 2870 2869 2868 2867 2865 2864 2863 2861 2860 2858 2857 2856 2855 2853 2852 2851 2849 2848 2847 2846
2957 2956 2954 2953 2952 2951 2950 2948 2947 2947 2946 2945 2944 2942 2941 2939 2938 2937 2935 2933 2932 2931 2929 2928 2927 2925 2923 2921 2920 2919 2918 2917 2914 2911 2908 2907 2905 2903 2902 2900 2898 2896 2894 2892 2891 2891 2891 2890 2889 2887 2886 2885 2883 2882 2881 2880 2878 2877 2877 2876 2875 2874 2873 2872 2871 2870 2869 2868 2867 2866 2864 2863 2862 2860 2859 2857 2856 2855 2853 2852 2851 2849 2848 2847 2846 2845
2955 2953 2952 2951 2950 2949 2947 2946 2945 2944 2944 2944 2943 2942 2940 2938 2937 2935 2933 2932 2931 2929 2928 2927 2925 2923 2921 2919 2918 2917 2915 2914 2912 2910 2907 2905 2903 2902 2900 2898 2897 2895 2893 2892 2890 2889 2888 2889 2888 2887 2886 2884 2883 2881 2880 2879 2877 2877 2876 2875 2874 2873 2872 2871 2870 2870 2869 2868 2867 2865 2864 2862 2861 2860 2858 2857 2855 2854 2853 2851 2850 2848 2847 2846 2845 2844
2952 2951 2950 2949 2947 2946 2945 2944 2943 2942 2942 2942 2941 2940 2939 2937 2935 2933 2932 2930 2929 2927 2926 2925 2923 2922 2920 2918 2917 2915 2914 2912 2910 2908 2906 2904 2902 2900 2899 2897 2896 2894 2893 2891 2890 2888 2887 2886 2886 2886 2885 2884 2882 2881 2879 2878 2877 2876 2875 2874 2873 2872 2872 2871 2870 2869 2868 2867 2866 2865 2863 2862 2861 2859 2857 2856 2855 2853 2852 2850 2849 2847 2846 2845 2844 2843
2948 2947 2947 2946 2945 2944 2943 2942 2941 2940 2939 2939 2938 2937 2936 2934 2932 2931 2930 2928 2927 2926 2924 2923 2921 2920 2918 2917 2916 2914 2912 2911 2909 2907 2904 2902 2901 2899 2898 2896 2895 2893 2892 2891 2889 2888 2887 2885 2884 2884 2884 2883 2882 2880 2879 2877 2876 2875 2874 2873 2872 2872 2871 2870 2869 2868 2867 2866 2865 2864 2863 2862 2860 2858 2857 2855 2854 2852 2851 2850 2848 2847 2845 2844 2843 2842
2944 2943 2943 2942 2941 2940 2940 2939 2938 2937 2937 2936 2935 2934 2932 2931 2930 2929 2927 2926 2925 2924 2922 2921 2919 2918 2917 2915 2914 2912 2911 2910 2907 2905 2903 2902 2900 2898 2897 2895 2894 2892 2891 2890 2889 2887 2887 2885 2884 2883 2882 2882 2881 2880 2878 2877 2876 2875 2873 2872 2872 2871 2869 2868 2867 2867 2866 2865 2864 2863 2862 2861 2859 2858 2856 2855 2853 2852 2850 2849 2847 2846 2845 2843 2842 2841
2941 2940 2939 2938 2938 2937 2936 2936 2936 2936 2935 2934 2933 2931 2930 2929 2928 2927 2926 2924 2923 2922 2920 2919 2918 2916 2915 2914 2912 2911 2910 2908 2906 2904 2902 2901 2899 2897 2896 2894 2892 2891 2890 2889 2888 2887 2886 2885 2884 2882 2881 2880 2880 2879 2878 2877 2875 2874 2873 2872 2871 2870 2868 2867 2867 2866 2865 2864 2863 2862 2861 2859 2858 2857 2855 2853 2852 2850 2849 2847 2846 2845 2844 2843 2842 2840
2938 2937 2936 2936 2935 2934 2933 2933 2932 2932 2932 2932 2930 2928 2927 2927 2926 2924 2923 2922 2921 2920 2919 2917 2916 2915 2913 2912 2911 2909 2908 2907 2905 2903 2901 2900 2898 2896 2894 2893 2892 2890 2889 2888 2887 2886 2885 2884 2883 2882 2881 2879 2879 2878 2877 2876 2875 2874 2873 2872 2871 2869 2868 2867 2866 2865 2864 2863 2862 2861 2859 2858 2857 2855 2854 2852 2851 2849 2848 2847 2845 2844 2843 2842 2841 2840
2935 2934 2934 2933 2932 2931 2931 2930 2930 2929 2929 2928 2927 2926 2925 2924 2924 2923 2922 2921 2920 2918 2917 2916 2914 2913 2912 2910 2909 2908 2906 2905 2903 2901 2900 2898 2897 2895 2893 2892 2891 2890 2888 2887 2886 2885 2884 2883 2882 2881 2880 2879 2878 2877 2876 2875 2874 2873 2872 2872 2870 2869 2868 2867 2865 2864 2863 2862 2861 2860 2858 2857 2855 2854 2852 2851 2849 2848 2847 2846 2844 2843 2842 2842 2840 2839
2932 2932 2931 2931 2930 2929 2928 2927 2927 2927 2926 2926 2925 2924 2923 2922 2922 2921 2920 2919 2918 2917 2916 2915 2913 2912 2911 2909 2908 2906 2904 2903 2901 2900 2898 2897 2895 2894 2892 2891 2890 2889 2888 2886 2885 2884 2883 2882 2881 2880 2879 2879 2878 2877 2875 2874 2873 2872 2872 2871 2870 2869 2867 2866 2865 2864 2863 2862 2860 2859 2857 2856 2854 2852 2851 2849 2848 2847 2846 2845 2844 2842 2842 2841 2840 2839
2930 2929 2929 2928 2928 2927 2926 2925 2924 2924 2924 2923 2922 2922 2921 2920 2919 2918 2917 2917 2916 2915 2914 2913 2912 2911 2910 2908 2907 2905 2903 2901 2900 2898 2897 2895 2894 2893 2892 2890 2889 2888 2887 2886 2885 2883 2882 2881 2880 2879 2878 2877 2877 2876 2875 2873 2872 2871 2871 2870 2869 2868 2867 2866 2865 2863 2862 2861 2859 2858 2856 2854 2852 2851 2849 2847 2846 2845 2844 2844 2843 2842 2841 2840 2839 2839
2927 2927 2926 2926 2926 2925 2924 2923 2922 2922 2921 2921 2920 2920 2919 2918 2917 2916 2916 2915 2914 2914 2913 2912 2911 2910 2909 2907 2906 2904 2902 2900 2898 2897 2896 2894 2893 2892 2890 2889 2888 2887 2886 2885 2884 2883 2882 2881 2880 2879 2878 2877 2876 2875 2874 2873 2871 2870 2869 2869 2868 2867 2867 2866 2864 2863 2862 2860 2858 2856 2855 2853 2851 2849 2848 2846 2845 2844 2843 2842 2842 2841 2840 2839 2839 2838
2925 2924 2923 2923 2923 2922 2922 2921 2920 2920 2919 2919 2919 2918 2917 2917 2915 2914 2914 2913 2913 2912 2912 2911 2910 2909 2908 2907 2905 2902 2901 2899 2897 2896 2894 2893 2892 2890 2889 2888 2887 2886 2886 2885 2884 2883 2882 2880 2879 2878 2877 2876 2875 2874 2873 2872 2871 2870 2868 2868 2867 2866 2866 2865 2863 2862 2860 2859 2857 2855 2853 2852 2850 2848 2847 2846 2844 2843 2842 2841 2841 2840 2839 2839 2838 2837
2922 2921 2921 2920 2920 2919 2919 2918 2918 2917 2917 2917 2917 2917 2915 2914 2913 2913 2913 2912 2912 2911 2911 2910 2909 2908 2907 2906 2904 2902 2900 2898 2896 2895 2893 2892 2891 2889 2888 2887 2886 2885 2885 2884 2883 2882 2881 2880 2879 2878 2877 2875 2874 2873 2873 2872 2871 2869 2868 2867 2866 2865 2865 2864 2863 2861 2859 2857 2856 2854 2852 2851 2849 2847 2846 2845 2844 2842 2842 2841 2840 2839 2839 2838 2837 2837
2919 2918 2918 2917 2917 2917 2916 2916 2915 2915 2915 2915 2915 2914 2913 2912 2912 2912 2912 2912 2911 2910 2909 2908 2908 2907 2906 2904 2903 2901 2899 2897 2895 2893 2892 2891 2890 2888 2887 2886 2885 2884 2883 2883 2882 2882 2881 2880 2878 2877 2876 2875 2874 2873 2872 2871 2870 2869 2868 2867 2865 2864 2864 2862 2862 2860 2858 2857 2855 2853 2851 2850 2848 2847 2846 2844 2843 2842 2841 2840 2840 2839 2838 2837 2837 2836
2917 2916 2915 2915 2914 2914 2913 2913 2913 2913 2913 2913 2912 2911 2911 2910 2910 2911 2911 2910 2909 2908 2908 2907 2906 2905 2904 2903 2901 2900 2898 2896 2894 2892 2891 2890 2889 2887 2887 2885 2884 2883 2882 2882 2881 2880 2880 2879 2878 2877 2876 2874 2873 2872 2872 2871 2870 2869 2867 2867 2865 2864 2863 2862 2860 2858 2857 2856 2854 2852 2851 2849 2848 2847 2846 2844 2843 2842 2841 2840 2839 2839 2838 2837 2836 2836
2914 2913 2912 2912 2911 2911 2911 2911 2911 2911 2911 2911 2910 2909 2909 2909 2909 2909 2909 2908 2907 2907 2906 2905 2904 2903 2902 2901 2900 2898 2897 2895 2894 2892 2890 2889 2888 2887 2886 2884 2883 2882 2882 2881 2880 2879 2878 2878 2877 2877 2875 2874 2873 2872 2871 2870 2869 2868 2867 2866 2865 2864 2862 2861 2859 2858 2856 2855 2853 2852 2850 2849 2847 2846 2845 2844 2843 2842 2841 2840 2839 2838 2838 2837 2836 2835
2911 2911 2910 2909 2909 2909 2909 2909 2909 2909 2909 2908 2908 2908 2908 2908 2908 2908 2907 2907 2906 2905 2904 2904 2903 2902 2900 2899 2898 2897 2895 2894 2893 2892 2890 2888 2887 2886 2885 2883 2882 2882 2881 2880 2879 2878 2877 2877 2876 2876 2875 2874 2872 2872 2871 2870 2869 2868 2867 2866 2865 2864 2862 2861 2859 2858 2856 2854 2853 2851 2850 2849 2847 2846 2845 2844 2843 2842 2841 2840 2839 2838 2837 2837 2836 2835
2909 2908 2908 2907 2907 2907 2907 2908 2908 2908 2907 2907 2907 2907 2907 2907 2907 2906 2906 2905 2904 2904 2903 2902 2901 2900 2899 2897 2896 2895 2894 2893 2892 2890 2889 2888 2887 2885 2884 2883 2882 2881 2880 2879 2878 2877 2877 2876 2876 2875 2874 2873 2872 2872 2870 2869 2868 2867 2867 2866 2865 2863 2862 2860 2859 2858 2856 2854 2853 2851 2849 2848 2847 2846 2845 2844 2843 2842 2841 2840 2839 2838 2837 2837 2836 2836
2907 2907 2906 2905 2905 2905 2906 2906 2906 2906 2907 2907 2906 2906 2906 2905 2905 2904 2904 2903 2903 2902 2901 2900 2899 2898 2897 2896 2894 2893 2892 2891 2890 2889 2888 2887 2886 2885 2883 2882 2881 2880 2879 2878 2877 2876 2875 2875 2875 2874 2873 2872 2872 2871 2870 2869 2868 2867 2866 2865 2864 2862 2861 2860 2859 2858 2856 2855 2853 2851 2850 2848 2847 2845 2844 2843 2842 2842 2841 2840 2839 2838 2838 2837 2837 2836
2906 2905 2904 2904 2904 2904 2904 2904 2905 2905 2906 2905 2905 2904 2904 2904 2903 2903 2902 2902 2901 2900 2899 2898 2897 2897 2896 2894 2893 2892 2891 2890 2889 2888 2887 2886 2885 2884 2883 2882 2881 2880 2879 2878 2877 2875 2874 2874 2874 2874 2873 2872 2872 2871 2870 2869 2868 2867 2866 2865 2863 2862 2861 2860 2859 2858 2856 2854 2853 2852 2850 2848 2847 2846 2844 2843 2843 2842 2841 2840 2839 2839 2838 2838 2837 2837
2904 2903 2903 2902 2902 2902 2903 2903 2904 2904 2904 2903 2903 2903 2902 2902 2902 2901 2901 2900 2899 2898 2897 2897 2896 2895 2894 2893 2892 2891 2890 2888 2887 2887 2886 2885 2884 2883 2882 2881 2880 2880 2879 2878 2877 2876 2874 2873 2873 2873 2873 2872 2871 2870 2870 2869 2868 2867 2866 2864 2863 2862 2861 2860 2859 2857 2856 2854 2853 2851 2850 2849 2847 2846 2845 2844 2843 2842 2842 2841 2840 2839 2839 2839 2838 2838
2902 2902 2902 2901 2901 2901 2902 2902 2903 2902 2902 2902 2902 2902 2901 2900 2900 2899 2899 2898 2897 2897 2896 2895 2894 2893 2892 2892 2891 2889 2888 2887 2887 2886 2885 2884 2883 2882 2881 2880 2880 2879 2878 2878 2877 2876 2875 2873 2872 2872 2872 2872 2871 2870 2870 2869 2868 2867 2866 2865 2863 2862 2861 2860 2859 2857 2856 2854 2853 2851 2850 2849 2848 2847 2846 2845 2844 2843 2842 2842 2841 2840 2840 2840 2840 2839